KC9S Weather Reports


Display with metric or nautical units.
time (UTC)temp
F
wind
direction
speed
MPH
gust
MPH
rain 1hr
in
rain 24hr
in
rain mn
in
humidity
%
barometer
mb
20260905213515 93 0.0 0.0 0.00 0.00 0.00 62 1011.7
20260905212516 93 0.0 0.0 0.00 0.00 0.00 62 1011.6
20260905211516 94 0.0 0.0 0.00 0.00 0.00 61 1011.7
20260905210536 94 0.0 0.0 0.00 0.00 0.00 59 1011.7
20260905205556 94 0.0 0.0 0.00 0.00 0.00 60 1011.7
20260905204536 94 0.0 0.0 0.00 0.00 0.00 60 1011.7
20260905203516 94 0.0 0.0 0.00 0.00 0.00 61 1011.9
20260905202516 95 0.0 0.0 0.00 0.00 0.00 58 1011.9
20260905201516 95 0.0 0.0 0.00 0.00 0.00 56 1012.0
20260905200515 96 0.0 0.0 0.00 0.00 0.00 56 1012.1
20260905195536 96 0.0 0.0 0.00 0.00 0.00 56 1012.0
20260905194516 95 0.0 0.0 0.00 0.00 0.00 55 1012.0
20260905193535 96 0.0 0.0 0.00 0.00 0.00 52 1012.0
20260905192516 96 0.0 0.0 0.00 0.00 0.00 53 1012.2
20260905191516 95 0.0 0.0 0.00 0.00 0.00 53 1012.4
20260905190536 95 0.0 0.0 0.00 0.00 0.00 55 1012.5
20260905185515 94 0.0 0.0 0.00 0.00 0.00 57 1012.6
20260905184538 94 0.0 0.0 0.00 0.00 0.00 56 1012.5
20260905183517 95 0.0 0.0 0.00 0.00 0.00 55 1012.8
20260905182517 95 0.0 0.0 0.00 0.00 0.00 55 1012.7
20260905181538 95 0.0 0.0 0.00 0.00 0.00 54 1012.8
20260905180517 95 0.0 0.0 0.00 0.00 0.00 56 1012.8
20260905175517 95 0.0 0.0 0.00 0.00 0.00 57 1013.0
20260905174517 95 0.0 0.0 0.00 0.00 0.00 55 1013.0
20260905173515 95 0.0 0.0 0.00 0.00 0.00 56 1013.1
20260905172518 94 0.0 0.0 0.00 0.00 0.00 59 1013.1
20260905171517 93 0.0 0.0 0.00 0.00 0.00 59 1013.2
20260905170517 93 0.0 0.0 0.00 0.00 0.00 59 1013.2
20260905165517 93 0.0 0.0 0.00 0.00 0.00 58 1013.2
20260905164518 92 0.0 0.0 0.00 0.00 0.00 61 1013.2
20260905163537 92 0.0 0.0 0.00 0.00 0.00 62 1013.4
20260905162518 92 0.0 0.0 0.00 0.00 0.00 60 1013.4
20260905161517 93 0.0 0.0 0.00 0.00 0.00 59 1013.3
20260905160517 92 0.0 0.0 0.00 0.00 0.00 63 1013.4
20260905155517 91 0.0 0.0 0.00 0.00 0.00 62 1013.4
20260905154518 91 0.0 0.0 0.00 0.00 0.00 62 1013.5
20260905153517 91 0.0 0.0 0.00 0.00 0.00 61 1013.1
20260905152515 90 0.0 0.0 0.00 0.00 0.00 64 1013.2
20260905151518 89 0.0 0.0 0.00 0.00 0.00 66 1013.2
20260905150517 88 0.0 0.0 0.00 0.00 0.00 66 1013.3
20260905145537 87 0.0 0.0 0.00 0.00 0.00 69 1013.2
20260905144517 87 0.0 0.0 0.00 0.00 0.00 72 1013.3
20260905143517 85 0.0 0.0 0.00 0.00 0.00 74 1013.5
20260905142517 84 0.0 0.0 0.00 0.00 0.00 78 1013.4
20260905141517 83 0.0 0.0 0.00 0.00 0.00 79 1013.4
20260905140537 82 0.0 0.0 0.00 0.00 0.00 81 1013.3
20260905135538 81 0.0 0.0 0.00 0.00 0.00 82 1013.3
20260905134517 80 0.0 0.0 0.00 0.00 0.00 82 1013.4
20260905133517 80 0.0 0.0 0.00 0.00 0.00 82 1013.3
20260905132558 79 0.0 0.0 0.00 0.00 0.00 83 1013.4
20260905131518 78 0.0 0.0 0.00 0.00 0.00 84 1013.4
20260905130517 78 0.0 0.0 0.00 0.00 0.00 85 1013.5
20260905125517 78 0.0 0.0 0.00 0.00 0.00 85 1013.4
20260905124517 77 0.0 0.0 0.00 0.00 0.00 86 1013.2
20260905123517 77 0.0 0.0 0.00 0.00 0.00 87 1013.2
20260905122517 76 0.0 0.0 0.00 0.00 0.00 86 1013.1
20260905121517 76 0.0 0.0 0.00 0.00 0.00 86 1013.1
20260905120518 76 0.0 0.0 0.00 0.00 0.00 86 1013.1
20260905115517 76 0.0 0.0 0.00 0.00 0.00 86 1013.0
20260905114517 76 0.0 0.0 0.00 0.00 0.00 86 1013.0
20260905113517 77 0.0 0.0 0.00 0.00 0.00 85 1013.0
20260905112537 77 0.0 0.0 0.00 0.00 0.00 84 1013.1
20260905111517 77 0.0 0.0 0.00 0.00 0.00 84 1013.1
20260905110517 77 0.0 0.0 0.00 0.00 0.00 84 1013.0
20260905105518 77 0.0 0.0 0.00 0.00 0.00 85 1013.1
20260905104517 76 0.0 0.0 0.00 0.00 0.00 85 1013.0
20260905103517 76 0.0 0.0 0.00 0.00 0.00 86 1013.1
20260905102517 76 0.0 0.0 0.00 0.00 0.00 86 1013.1
20260905101517 76 0.0 0.0 0.00 0.00 0.00 87 1013.0
20260905100517 77 0.0 0.0 0.00 0.00 0.00 86 1013.0
20260905095517 76 0.0 0.0 0.00 0.00 0.00 87 1012.8
20260905094517 76 0.0 0.0 0.00 0.00 0.00 87 1012.9
20260905093517 76 0.0 0.0 0.00 0.00 0.00 87 1012.6
20260905092517 76 0.0 0.0 0.00 0.00 0.00 87 1012.6
20260905091557 76 0.0 0.0 0.00 0.00 0.00 88 1012.5
20260905090517 76 0.0 0.0 0.00 0.00 0.00 88 1012.5
20260905085517 76 0.0 0.0 0.00 0.00 0.00 88 1012.7
20260905084517 76 0.0 0.0 0.00 0.00 0.00 88 1012.8
20260905083517 76 0.0 0.0 0.00 0.00 0.00 87 1012.9
20260905082518 76 0.0 0.0 0.00 0.00 0.00 88 1012.9
20260905081516 76 0.0 0.0 0.00 0.00 0.00 88 1013.1
20260905080517 77 0.0 0.0 0.00 0.00 0.00 88 1013.2
20260905075516 77 0.0 0.0 0.00 0.00 0.00 88 1013.0
20260905074516 77 0.0 0.0 0.00 0.00 0.00 88 1013.1
20260905073516 77 0.0 0.0 0.00 0.00 0.00 88 1013.0
20260905072537 77 0.0 0.0 0.00 0.00 0.00 88 1013.1
20260905071516 77 0.0 0.0 0.00 0.00 0.00 88 1013.1
20260905070536 77 0.0 0.0 0.00 0.00 0.00 87 1013.2
20260905065517 77 0.0 0.0 0.00 0.00 0.00 87 1013.2
20260905064516 78 0.0 0.0 0.00 0.00 0.00 87 1013.2
20260905063518 78 0.0 0.0 0.00 0.00 0.00 87 1013.3
20260905062516 78 0.0 0.0 0.00 0.00 0.00 87 1013.3
20260905061516 78 0.0 0.0 0.00 0.00 0.00 87 1013.3
20260905060517 78 0.0 0.0 0.00 0.00 0.00 86 1013.3
20260905055516 78 0.0 0.0 0.00 0.00 0.00 86 1013.3
20260905054516 78 0.0 0.0 0.00 0.00 0.00 86 1013.3
20260905053516 78 0.0 0.0 0.00 0.00 0.00 85 1013.4
20260905052516 79 0.0 0.0 0.00 0.00 0.00 85 1013.6
20260905051516 79 0.0 0.0 0.00 0.00 0.00 85 1013.5
20260905050517 79 0.0 0.0 0.00 0.00 0.00 84 1013.2
20260905045536 79 0.0 0.0 0.00 0.00 0.00 85 1013.4
20260905044516 79 0.0 0.0 0.00 0.00 0.00 84 1013.5
20260905043516 79 0.0 0.0 0.00 0.00 0.00 84 1013.6
20260905042516 79 0.0 0.0 0.00 0.00 0.00 83 1013.5
20260905041516 80 0.0 0.0 0.00 0.00 0.00 82 1013.6
20260905040516 80 0.0 0.0 0.00 0.00 0.00 82 1013.6
20260905035516 81 0.0 0.0 0.00 0.00 0.00 81 1013.5
20260905034516 81 0.0 0.0 0.00 0.00 0.00 80 1013.6
20260905033516 81 0.0 0.0 0.00 0.00 0.00 80 1013.5
20260905032516 81 0.0 0.0 0.00 0.00 0.00 77 1013.5
20260905031516 82 0.0 0.0 0.00 0.00 0.00 77 1013.6
20260905030516 82 0.0 0.0 0.00 0.00 0.00 76 1013.3
20260905025516 82 0.0 0.0 0.00 0.00 0.00 76 1013.0
20260905024516 82 0.0 0.0 0.00 0.00 0.00 77 1013.0
20260905023516 82 0.0 0.0 0.00 0.00 0.00 78 1013.1
20260905022557 83 0.0 0.0 0.00 0.00 0.00 77 1013.0
20260905021516 83 0.0 0.0 0.00 0.00 0.00 76 1013.0
20260905020516 83 0.0 0.0 0.00 0.00 0.00 76 1012.9
20260905015516 83 0.0 0.0 0.00 0.00 0.00 74 1013.0
20260905014536 84 0.0 0.0 0.00 0.00 0.00 73 1012.7
20260905013516 85 0.0 0.0 0.00 0.00 0.00 73 1012.8
20260905012536 86 0.0 0.0 0.00 0.00 0.00 72 1012.5
20260905011515 86 0.0 0.0 0.00 0.00 0.00 71 1012.4
20260905010516 87 0.0 0.0 0.00 0.00 0.00 68 1012.3
20260905005516 87 0.0 0.0 0.00 0.00 0.00 68 1012.3
20260905004535 88 0.0 0.0 0.00 0.00 0.00 65 1012.3
20260905003516 89 0.0 0.0 0.00 0.00 0.00 67 1012.3
20260905002515 90 0.0 0.0 0.00 0.00 0.00 66 1012.3
20260905001516 90 0.0 0.0 0.00 0.00 0.00 63 1012.3
20260905000540 91 0.0 0.0 0.00 0.00 0.00 62 1012.4
20260904235516 92 0.0 0.0 0.00 0.00 0.00 60 1012.4
20260904234515 93 0.0 0.0 0.00 0.00 0.00 58 1012.3
20260904233535 93 0.0 0.0 0.00 0.00 0.00 51 1012.2
20260904232515 94 0.0 0.0 0.00 0.00 0.00 50 1012.2
20260904231515 94 0.0 0.0 0.00 0.00 0.00 48 1012.1
20260904230515 95 0.0 0.0 0.00 0.00 0.00 48 1012.2
20260904225515 95 0.0 0.0 0.00 0.00 0.00 48 1012.1
20260904224516 95 0.0 0.0 0.00 0.00 0.00 47 1011.9
20260904223516 96 0.0 0.0 0.00 0.00 0.00 46 1012.1
20260904222515 96 0.0 0.0 0.00 0.00 0.00 45 1012.0
20260904221515 96 0.0 0.0 0.00 0.00 0.00 46 1012.1
20260904220517 96 0.0 0.0 0.00 0.00 0.00 46 1012.0
20260904215517 95 0.0 0.0 0.00 0.00 0.00 45 1012.1
20260904214618 95 0.0 0.0 0.00 0.00 0.00 46 1012.2